Regional Weather Roundup
Issued by NWS

Home | Current Version | Previous Version | Graphics & Text | Print | Product List | Glossary On
Versions: 1 2 3 4 5 6 7 8 9 10 11 12 13 14 15 16 17 18 19 20 21 22 23 24 25 26 27 28 29 30 31 32 33 34 35 36 37 38 39 40 41 42 43 44 45 46 47 48 49 50
000
ASUS43 KOAX 182310
RWRNE

WEATHER ROUNDUP FOR NEBRASKA
NATIONAL WEATHER SERVICE OMAHA NE
500 PM CST THU JAN 18 2018

NOTES: SATELLITE DATA IS BEING USED TO AUGMENT CLOUD COVER ABOVE
       12000 FEET.
       "FAIR" INDICATES FEW OR NO CLOUDS BELOW 12,000 FEET WITH NO
       SIGNIFICANT WEATHER AND/OR OBSTRUCTIONS TO VISIBILITY.


NEZ001>004-019>022-054>056-190000-
NEBRASKA PANHANDLE

CITY           SKY/WX    TMP DP  RH WIND       PRES   REMARKS
SCOTTSBLUFF    MOCLDY    48  31  51 W10       29.89F
ALLIANCE       MOCLDY    42  33  70 SW8       29.88S
CHADRON        CLOUDY    49  33  54 CALM      29.84F
GORDON         FAIR      47  32  55 W8        29.84F
KIMBALL        MOCLDY    56  25  29 W7        29.94S
SIDNEY         MOCLDY    55  27  34 MISG      29.93S
$$

NEZ057>060-069>072-079>082-190000-
SOUTHWEST NEBRASKA

CITY           SKY/WX    TMP DP  RH WIND       PRES   REMARKS
NORTH PLATTE   CLOUDY    44  31  60 W3        29.92R
IMPERIAL       CLOUDY    51  29  42 SW6       29.92S
LEXINGTON      CLOUDY    43  32  64 CALM      29.91S
MCCOOK         CLOUDY    50  25  37 W3        29.93R
OGALLALA       CLOUDY    49  28  45 W3        29.91S
$$

NEZ005>010-023>029-035>040-094-190000-
NORTH CENTRAL NEBRASKA

CITY           SKY/WX    TMP DP  RH WIND       PRES   REMARKS
VALENTINE      MOCLDY    46  31  55 CALM      29.83S
AINSWORTH      CLOUDY    41  32  70 CALM      29.83F
BROKEN BOW     CLOUDY    43  30  60 CALM      29.88S
O`NEILL        CLOUDY    38  32  79 SW5       29.85S WCI  34
ORD            CLOUDY    42  30  62 SW7       29.87R
THEDFORD       CLOUDY    46  32  59 SW7       29.87F
$$

NEZ041-046>049-061>064-073>077-083>087-190000-
SOUTH CENTRAL NEBRASKA

CITY           SKY/WX    TMP DP  RH WIND       PRES   REMARKS
GRAND ISLAND   CLOUDY    40  30  67 SW12      29.90S WCI  33
AURORA         CLOUDY    41  30  66 SW9       29.91R
HASTINGS       CLOUDY    44  31  60 SW7       29.92S
HEBRON         CLOUDY    40  28  64 S6        29.95S
HOLDREGE       CLOUDY    45  30  55 SW5       29.92R
KEARNEY        CLOUDY    42  30  62 SW13      29.91S
YORK           CLOUDY    41  32  70 SW9       29.91S
$$

NEZ011>018-030>034-042>045-190000-
NORTHEAST NEBRASKA

CITY           SKY/WX    TMP DP  RH WIND       PRES   REMARKS
NORFOLK        CLOUDY    37  30  75 S7        29.85R WCI  32
ALBION         CLOUDY    42  32  67 W3        29.88R
BLAIR          CLOUDY    35  25  68 S14       29.90S WCI  25
COLUMBUS       CLOUDY    43  29  57 SW9       29.90R
FREMONT        CLOUDY    40  27  57 S7        29.91S
TEKAMAH        CLOUDY    37  25  61 S12       29.91R WCI  29
WAYNE          CLOUDY    37  30  74 S7        29.86S WCI  32
$$

NEZ050>053-065>068-078-088>093-190000-
SOUTHEAST NEBRASKA

CITY           SKY/WX    TMP DP  RH WIND       PRES   REMARKS
LINCOLN        CLOUDY    38  25  59 S10       29.94S WCI  31
OMAHA EPPLEY   CLOUDY    33  22  63 S14       29.94R WCI  23
BEATRICE       CLOUDY    34  24  68 S12       29.97S WCI  25
FALLS CITY     CLOUDY    40  24  53 S7        29.99F
NEBRASKA CITY  CLOUDY    34  24  68 SW15      29.96S WCI  24
PLATTSMOUTH    CLOUDY    32  23  69 S13       29.94S WCI  22
$$

NEZ044-045-051>053-067-190000-
OMAHA AREA

CITY           SKY/WX    TMP DP  RH WIND       PRES   REMARKS
OMAHA EPPLEY   CLOUDY    33  22  63 S14       29.94R WCI  23
BLAIR          CLOUDY    35  25  68 S14       29.90S WCI  25
FREMONT        CLOUDY    40  27  57 S7        29.91S
MILLARD        CLOUDY    36  25  64 SE7       29.94R WCI  30
OFFUTT AFB     CLOUDY    32  21  63 S8        29.94S WCI  25
PLATTSMOUTH    CLOUDY    32  23  69 S13       29.94S WCI  22
WAHOO          FAIR      39  26  58 S8        29.92S WCI  33
$$



USA.gov is the U.S. government's official web portal to all federal, state and local government web resources and services.